Regional Weather Roundup
Issued by NWS

Home | Current Version | Previous Version | Text Only | Print | Product List | Glossary On
Versions: 1 2 3 4 5 6 7 8 9 10 11 12 13 14 15 16 17 18 19 20 21 22 23 24 25 26 27 28 29 30 31 32 33 34 35 36 37 38 39 40 41 42 43 44 45 46 47 48 49 50
000
ASUS43 KDTX 301901
RWRMI
MICHIGAN HOURLY REGIONAL WEATHER ROUNDUP
NATIONAL WEATHER SERVICE DETROIT/PONTIAC MI
300 PM EDT TUE JUN 30 2015

NOTE: "FAIR" INDICATES FEW OR NO CLOUDS BELOW 12,000 FEET WITH NO
SIGNIFICANT WEATHER AND/OR OBSTRUCTION TO VISIBILITY.

MIZ047>049-052>055-059>063-066>070-074>076-081>083-302000-
SOUTHEAST LOWER MICHIGAN

CITY           SKY/WX    TMP DP  RH WIND       PRES   REMARKS
ADRIAN         CLOUDY    72  62  71 W8        29.79F
ALMA           CLOUDY    70  61  71 S6        29.78F
ANN ARBOR      LGT RAIN  71  62  73 W10       29.78S
BAD AXE        CLOUDY    67  57  71 E8        29.80F
CARO           CLOUDY    71  60  66 E3        29.78F
DETROIT CITY   PTSUNNY   73  60  63 S5        29.76F
DETROIT        CLOUDY    73  60  63 SW9       29.77F
FLINT          CLOUDY    75  60  59 SW8       29.77F
GROSSE ILE     CLOUDY    72  64  78 S8        29.76F
HILLSDALE      PTSUNNY   71  65  80 S7        29.79F
HOWELL         CLOUDY    72  60  65 SW8       29.78F

CITY           SKY/WX    TMP DP  RH WIND       PRES   REMARKS
JACKSON        PTSUNNY   74  63  68 SW7       29.78F
LAMBERTVILLE   CLOUDY    73  62  68 W3        29.79S
LANSING        CLOUDY    67  62  84 W3        29.79F
LAPEER         CLOUDY    70  58  66 N3        29.78S
MASON          CLOUDY    69  61  74 SW5       29.78F
MONROE           N/A     73  62  68 W10       29.77
MT. CLEMENS    PTSUNNY   71  62  74 E7        29.75F
PONTIAC        PTSUNNY   72  59  63 W7        29.76F
PORT HOPE        N/A     63  57  81 CALM      29.79F
PORT HURON     CLOUDY    70  61  73 N7        29.77F
TRI CITIES     CLOUDY    73  60  63 E6        29.78F
MIDLAND        CLOUDY    70  58  64 E9        29.77F
TROY           PTSUNNY   74  60  59 W3        29.78F
SAGINAW HB     CLOUDY    70  55  60 NE5       29.77F
$$
MIZ043>046-050>051-056>058-064>065-071>073-077>080-302000-
SOUTHWEST LOWER MICHIGAN

CITY           SKY/WX    TMP DP  RH WIND       PRES   REMARKS
BATTLE CREEK   PTSUNNY   75  63  66 W8        29.78F
BENTON HARBOR  PTSUNNY   67  60  78 NW12G18   29.82S HAZE
BIG RAPIDS     CLOUDY    65  60  83 SW7       29.79S
COLDWATER      PTSUNNY   73  63  72 SW7       29.79F
FREMONT        CLOUDY    65  63  94 CALM      29.78S
HOLLAND        CLOUDY    66  60  81 W10       29.81R
GRAND RAPIDS   PTSUNNY   69  66  90 CALM      29.78S FOG
IONIA          LGT RAIN  64  63  98 N3        29.78S
KALAMAZOO      PTSUNNY   73  62  68 W6        29.78F
LUDINGTON      RAIN      61  58  91 N9        29.82R
MARSHALL       CLOUDY    73  63  69 SW12      29.77F
MOUNT PLEASANT RAIN      68  61  77 CALM      29.78S
MUSKEGON       CLOUDY    68  61  78 W8        29.78F HAZE
SOUTH HAVEN    PTSUNNY   66  60  79 NW9       29.82S HAZE
$$
MIZ016>042-302000-
NORTHERN LOWER MICHIGAN

CITY           SKY/WX    TMP DP  RH WIND       PRES   REMARKS
ALPENA         CLOUDY    66  61  84 SW3       29.81F
BEAVER ISLAND  CLOUDY    57  53  85 NW9       29.83S
BELLAIRE       CLOUDY    71  58  63 W5        29.79F
CADILLAC       CLOUDY    68  57  67 CALM      29.80S
CHARLEVOIX     CLOUDY   N/A N/A N/A NW7       29.84S
FRANKFORT      CLOUDY    58  51  77 N6        29.83R
GAYLORD        CLOUDY    69  55  60 SW6       29.80F
GRAYLING       LGT RAIN  63  60  87 W3        29.81S
HARBOR SPRINGS RAIN      65  63  95 NW5       29.80F
HOUGHTON LAKE  CLOUDY    67  59  75 W5        29.80F
MANISTEE       PTSUNNY   63  55  77 NW15      29.82S
OSCODA         CLOUDY    68  58  69 E3        29.80S
PELLSTON       LGT RAIN  65  63  93 NW10      29.81S FOG
ROGERS CITY    RAIN      64  61  91 S8        29.82S
TRAVERSE CITY  LGT RAIN  66  61  84 NW12      29.78R
$$
MIZ007>008-015-302000-
EASTERN UPPER MICHIGAN

CITY           SKY/WX    TMP DP  RH WIND       PRES   REMARKS
KINROSS        CLOUDY    61  59  94 N10       29.80R
MACKINAC ISLAN LGT RAIN  66  59  76 SW5       29.80S
NEWBERRY       CLOUDY    55  55  97 W8        29.83R
S. S. MARIE    LGT RAIN  62  59  90 N7        29.80S FOG
MUNISING         N/A     47  44  90 N15       29.91R
$$
MIZ004>006-011>014-085-302000-
CENTRAL UPPER MICHIGAN

CITY           SKY/WX    TMP DP  RH WIND       PRES   REMARKS
MANISTIQUE     CLOUDY    54  50  87 NW13G20   29.84S
ESCANABA       CLOUDY   N/A N/A N/A N14G21    29.86S
MENOMINEE      CLOUDY    64  54  68 N12       29.84F
SAWYER-GWINN   CLOUDY    48  43  81 N13       29.91F
$$
MIZ001>003-009>011-084-302000-
WESTERN UPPER MICHIGAN

CITY           SKY/WX    TMP DP  RH WIND       PRES   REMARKS
IRON MOUNTAIN  CLOUDY    59  49  69 N16       29.89S
HOUGHTON       CLOUDY    55  41  59 NE9       29.96F
COPPER HARBOR    N/A     48  40  73 N8        29.96S
IRONWOOD       CLOUDY    54  48  82 N10       29.96S
$$

ABBREVIATIONS USED IN REMARKS
   TC - TEMPERATURE IN CELSIUS
  WCI - WIND CHILL INDEX
   HX - HEAT INDEX
  VSB - VISIBILITY



USA.gov is the U.S. government's official web portal to all federal, state and local government web resources and services.